Time,TemperatureF,DewpointF,PressureIn,WindDirection,WindDirectionDegrees,WindSpeedMPH,WindSpeedGustMPH,Humidity,HourlyPrecipIn,Conditions,Clouds,dailyrainin,SoftwareType,DateUTC
2013-05-15 00:02:00,44.8,26.6,17.73,NW,316,0.0,0.0,24,-99.99,,,-99.99,meteohub,2013-05-15 06:02:00,
2013-05-15 00:07:00,44.2,26.6,17.73,NW,316,0.0,0.0,24,-99.99,,,-99.99,meteohub,2013-05-15 06:07:00,
2013-05-15 00:13:00,44.2,26.6,17.73,NW,316,0.0,0.0,24,-99.99,,,-99.99,meteohub,2013-05-15 06:13:00,
2013-05-15 00:18:00,44.1,26.6,17.73,NW,316,0.0,0.0,24,-99.99,,,-99.99,meteohub,2013-05-15 06:18:00,
2013-05-15 00:23:00,44.1,26.6,17.73,NW,316,0.0,0.0,24,-99.99,,,-99.99,meteohub,2013-05-15 06:23:00,
2013-05-15 00:28:00,43.3,26.6,17.73,NE,49,0.0,0.0,24,-99.99,,,-99.99,meteohub,2013-05-15 06:28:00,
2013-05-15 00:34:00,43.0,26.4,17.73,NW,323,0.0,3.0,24,-99.99,,,-99.99,meteohub,2013-05-15 06:34:00,
2013-05-15 00:39:00,42.8,26.4,17.73,NW,323,0.0,3.0,24,-99.99,,,-99.99,meteohub,2013-05-15 06:39:00,
2013-05-15 00:44:00,42.4,26.4,17.73,NW,322,0.0,3.0,24,-99.99,,,-99.99,meteohub,2013-05-15 06:44:00,
2013-05-15 00:49:00,42.1,26.4,17.73,NW,322,0.0,3.0,24,-99.99,,,-99.99,meteohub,2013-05-15 06:49:00,
2013-05-15 00:54:00,41.7,26.2,17.73,NW,317,0.0,0.0,24,-99.99,,,-99.99,meteohub,2013-05-15 06:54:00,
2013-05-15 00:59:00,41.2,26.2,17.73,WNW,298,5.0,5.0,24,-99.99,,,-99.99,meteohub,2013-05-15 06:59:00,
2013-05-15 01:05:00,40.8,26.1,17.73,NW,312,4.0,5.0,24,-99.99,,,-99.99,meteohub,2013-05-15 07:05:00,
2013-05-15 01:10:00,40.6,26.1,17.73,NW,317,0.0,5.0,24,-99.99,,,-99.99,meteohub,2013-05-15 07:10:00,
2013-05-15 01:15:00,41.2,26.1,17.73,NW,317,0.0,5.0,24,-99.99,,,-99.99,meteohub,2013-05-15 07:15:00,
2013-05-15 01:20:00,41.2,25.9,17.73,NW,317,0.0,4.0,24,-99.99,,,-99.99,meteohub,2013-05-15 07:20:00,
2013-05-15 01:25:00,40.5,25.9,17.73,NW,312,4.0,4.0,24,-99.99,,,-99.99,meteohub,2013-05-15 07:25:00,
2013-05-15 01:31:00,39.6,25.9,17.73,NW,322,3.0,5.0,24,-99.99,,,-99.99,meteohub,2013-05-15 07:31:00,
2013-05-15 01:36:00,36.9,25.9,17.73,WSW,239,3.0,5.0,24,-99.99,,,-99.99,meteohub,2013-05-15 07:36:00,
2013-05-15 01:41:00,34.5,25.7,17.73,WSW,240,3.0,5.0,24,-99.99,,,-99.99,meteohub,2013-05-15 07:41:00,
2013-05-15 01:46:00,34.9,25.7,17.73,WSW,258,3.0,4.0,24,-99.99,,,-99.99,meteohub,2013-05-15 07:46:00,
2013-05-15 01:51:00,36.0,25.7,17.73,West,259,0.0,3.0,24,-99.99,,,-99.99,meteohub,2013-05-15 07:51:00,
2013-05-15 01:56:00,36.7,25.5,17.73,West,259,0.0,3.0,24,-99.99,,,-99.99,meteohub,2013-05-15 07:56:00,
2013-05-15 02:02:00,36.9,25.5,17.73,NNW,330,0.0,3.0,24,-99.99,,,-99.99,meteohub,2013-05-15 08:02:00,
2013-05-15 02:07:00,36.9,25.5,17.73,NNW,330,0.0,0.0,24,-99.99,,,-99.99,meteohub,2013-05-15 08:07:00,
2013-05-15 02:12:00,37.0,25.5,17.73,NNW,330,0.0,0.0,24,-99.99,,,-99.99,meteohub,2013-05-15 08:12:00,
2013-05-15 02:17:00,37.0,25.3,17.73,NW,313,4.0,0.0,24,-99.99,,,-99.99,meteohub,2013-05-15 08:17:00,
2013-05-15 02:22:00,36.7,25.3,17.73,NW,326,0.0,6.0,24,-99.99,,,-99.99,meteohub,2013-05-15 08:22:00,
2013-05-15 02:27:00,36.9,25.3,17.73,WNW,299,5.0,6.0,24,-99.99,,,-99.99,meteohub,2013-05-15 08:27:00,
2013-05-15 02:32:00,36.3,25.3,17.73,NW,325,0.0,6.0,24,-99.99,,,-99.99,meteohub,2013-05-15 08:32:00,
2013-05-15 02:37:00,36.3,25.3,17.73,NW,320,0.0,5.0,24,-99.99,,,-99.99,meteohub,2013-05-15 08:37:00,
2013-05-15 02:42:00,36.1,26.1,17.73,NW,320,0.0,5.0,25,-99.99,,,-99.99,meteohub,2013-05-15 08:42:00,
2013-05-15 02:47:00,36.1,26.1,17.73,NW,320,0.0,3.0,25,-99.99,,,-99.99,meteohub,2013-05-15 08:47:00,
2013-05-15 02:52:00,36.3,26.1,17.73,NW,320,0.0,3.0,25,-99.99,,,-99.99,meteohub,2013-05-15 08:52:00,
2013-05-15 02:58:00,36.0,26.1,17.73,NW,307,4.0,4.0,25,-99.99,,,-99.99,meteohub,2013-05-15 08:58:00,
2013-05-15 03:03:00,35.6,26.1,17.73,NW,312,2.0,5.0,25,-99.99,,,-99.99,meteohub,2013-05-15 09:03:00,
2013-05-15 03:08:00,35.2,25.9,17.73,NW,312,0.0,5.0,25,-99.99,,,-99.99,meteohub,2013-05-15 09:08:00,
2013-05-15 03:13:00,34.5,25.9,17.73,NW,312,0.0,5.0,25,-99.99,,,-99.99,meteohub,2013-05-15 09:13:00,
2013-05-15 03:18:00,34.5,25.7,17.73,NW,312,3.0,4.0,25,-99.99,,,-99.99,meteohub,2013-05-15 09:18:00,
2013-05-15 03:23:00,34.9,25.7,17.73,NW,313,0.0,4.0,25,-99.99,,,-99.99,meteohub,2013-05-15 09:23:00,
2013-05-15 03:29:00,34.9,25.7,17.73,NW,313,0.0,4.0,25,-99.99,,,-99.99,meteohub,2013-05-15 09:29:00,
2013-05-15 03:34:00,35.1,25.7,17.73,NW,313,0.0,4.0,25,-99.99,,,-99.99,meteohub,2013-05-15 09:34:00,
2013-05-15 03:39:00,34.9,25.5,17.73,NW,313,0.0,0.0,25,-99.99,,,-99.99,meteohub,2013-05-15 09:39:00,
2013-05-15 03:44:00,34.9,25.5,17.73,NW,313,0.0,0.0,25,-99.99,,,-99.99,meteohub,2013-05-15 09:44:00,
2013-05-15 03:49:00,34.7,25.5,17.73,NW,313,0.0,0.0,25,-99.99,,,-99.99,meteohub,2013-05-15 09:49:00,
2013-05-15 03:54:00,34.5,25.3,17.73,NW,316,0.0,0.0,25,-99.99,,,-99.99,meteohub,2013-05-15 09:54:00,
2013-05-15 04:00:00,34.5,25.3,17.73,NW,313,3.0,4.0,25,-99.99,,,-99.99,meteohub,2013-05-15 10:00:00,
2013-05-15 04:05:00,34.5,25.2,17.73,West,264,0.0,4.0,25,-99.99,,,-99.99,meteohub,2013-05-15 10:05:00,
2013-05-15 04:10:00,34.0,25.2,17.73,NW,314,0.0,4.0,25,-99.99,,,-99.99,meteohub,2013-05-15 10:10:00,
2013-05-15 04:15:00,33.8,25.2,17.73,NW,307,0.0,5.0,25,-99.99,,,-99.99,meteohub,2013-05-15 10:15:00,
2013-05-15 04:20:00,33.8,25.0,17.73,NW,307,0.0,5.0,25,-99.99,,,-99.99,meteohub,2013-05-15 10:20:00,
2013-05-15 04:25:00,33.6,25.0,17.73,NNW,327,0.0,5.0,25,-99.99,,,-99.99,meteohub,2013-05-15 10:25:00,
2013-05-15 04:31:00,33.1,25.0,17.73,NW,319,0.0,0.0,25,-99.99,,,-99.99,meteohub,2013-05-15 10:31:00,
2013-05-15 04:36:00,33.1,25.0,17.73,NW,314,3.0,5.0,25,-99.99,,,-99.99,meteohub,2013-05-15 10:36:00,
2013-05-15 04:41:00,32.7,25.0,17.73,NW,317,3.0,5.0,25,-99.99,,,-99.99,meteohub,2013-05-15 10:41:00,
2013-05-15 04:46:00,32.5,25.0,17.73,NW,322,0.0,5.0,25,-99.99,,,-99.99,meteohub,2013-05-15 10:46:00,
2013-05-15 04:51:00,32.2,24.8,17.73,NW,314,0.0,5.0,25,-99.99,,,-99.99,meteohub,2013-05-15 10:51:00,
2013-05-15 04:57:00,32.0,24.8,17.73,NW,314,0.0,4.0,25,-99.99,,,-99.99,meteohub,2013-05-15 10:57:00,
2013-05-15 05:02:00,32.2,24.6,17.73,NW,314,0.0,4.0,25,-99.99,,,-99.99,meteohub,2013-05-15 11:02:00,
2013-05-15 05:07:00,32.0,24.6,17.73,NW,314,0.0,0.0,25,-99.99,,,-99.99,meteohub,2013-05-15 11:07:00,
2013-05-15 05:12:00,31.8,24.6,17.73,NW,324,0.0,0.0,25,-99.99,,,-99.99,meteohub,2013-05-15 11:12:00,
2013-05-15 05:17:00,32.0,24.4,17.73,NNW,329,0.0,0.0,25,-99.99,,,-99.99,meteohub,2013-05-15 11:17:00,
2013-05-15 05:24:00,31.8,24.4,17.73,NNW,328,0.0,0.0,25,-99.99,,,-99.99,meteohub,2013-05-15 11:24:00,
2013-05-15 05:29:00,31.6,24.4,17.73,NW,308,3.0,0.0,25,-99.99,,,-99.99,meteohub,2013-05-15 11:29:00,
2013-05-15 05:38:00,31.5,24.3,17.73,NW,307,0.0,4.0,25,-99.99,,,-99.99,meteohub,2013-05-15 11:38:00,
2013-05-15 05:47:00,30.9,24.1,17.73,NW,307,0.0,0.0,25,-99.99,,,-99.99,meteohub,2013-05-15 11:47:00,
2013-05-15 05:55:00,30.4,24.1,17.73,NW,307,0.0,0.0,25,-99.99,,,-99.99,meteohub,2013-05-15 11:55:00,
2013-05-15 06:00:00,30.6,24.1,17.73,NW,307,0.0,0.0,25,-99.99,,,-99.99,meteohub,2013-05-15 12:00:00,
2013-05-15 06:07:00,30.7,23.9,17.73,NW,307,0.0,0.0,25,-99.99,,,-99.99,meteohub,2013-05-15 12:07:00,
2013-05-15 06:13:00,31.5,23.9,17.73,NW,307,0.0,0.0,25,-99.99,,,-99.99,meteohub,2013-05-15 12:13:00,
2013-05-15 06:18:00,31.6,23.9,17.73,NW,307,0.0,0.0,25,-99.99,,,-99.99,meteohub,2013-05-15 12:18:00,
2013-05-15 06:25:00,31.6,23.9,17.73,NW,307,0.0,0.0,25,-99.99,,,-99.99,meteohub,2013-05-15 12:25:00,
2013-05-15 06:30:00,32.0,23.9,17.73,NW,308,0.0,0.0,25,-99.99,,,-99.99,meteohub,2013-05-15 12:30:00,
2013-05-15 06:35:00,32.0,23.9,17.73,NNW,329,0.0,0.0,25,-99.99,,,-99.99,meteohub,2013-05-15 12:35:00,
2013-05-15 06:42:00,31.6,23.9,17.73,NW,323,3.0,0.0,25,-99.99,,,-99.99,meteohub,2013-05-15 12:42:00,
2013-05-15 06:47:00,31.8,23.9,17.73,NNW,327,4.0,0.0,25,-99.99,,,-99.99,meteohub,2013-05-15 12:47:00,
2013-05-15 06:52:00,32.2,23.9,17.73,NNW,333,4.0,5.0,25,-99.99,,,-99.99,meteohub,2013-05-15 12:52:00,
2013-05-15 06:57:00,32.5,23.9,17.73,NNW,332,0.0,6.0,25,-99.99,,,-99.99,meteohub,2013-05-15 12:57:00,
2013-05-15 07:02:00,33.1,23.9,17.73,NNW,332,0.0,6.0,25,-99.99,,,-99.99,meteohub,2013-05-15 13:02:00,
2013-05-15 07:07:00,33.6,23.9,17.73,NNW,332,0.0,5.0,25,-99.99,,,-99.99,meteohub,2013-05-15 13:07:00,
2013-05-15 07:12:00,34.0,23.9,17.73,NNW,332,0.0,5.0,25,-99.99,,,-99.99,meteohub,2013-05-15 13:12:00,
2013-05-15 07:17:00,34.3,23.9,17.73,WSW,256,0.0,0.0,25,-99.99,,,-99.99,meteohub,2013-05-15 13:17:00,
2013-05-15 07:25:00,35.4,23.9,17.73,West,272,0.0,0.0,25,-99.99,,,-99.99,meteohub,2013-05-15 13:25:00,
2013-05-15 07:31:00,36.3,23.9,17.73,WNW,294,0.0,0.0,25,-99.99,,,-99.99,meteohub,2013-05-15 13:31:00,
2013-05-15 07:36:00,37.9,24.1,17.73,South,174,0.0,0.0,25,-99.99,,,-99.99,meteohub,2013-05-15 13:36:00,
2013-05-15 07:41:00,38.7,24.1,17.73,South,174,0.0,0.0,25,-99.99,,,-99.99,meteohub,2013-05-15 13:41:00,
2013-05-15 07:47:00,38.8,24.1,17.73,South,174,0.0,0.0,25,-99.99,,,-99.99,meteohub,2013-05-15 13:47:00,
2013-05-15 07:52:00,39.4,24.1,17.73,SSE,166,0.0,0.0,25,-99.99,,,-99.99,meteohub,2013-05-15 13:52:00,
2013-05-15 07:57:00,40.5,24.1,17.73,WSW,249,0.0,0.0,25,-99.99,,,-99.99,meteohub,2013-05-15 13:57:00,
2013-05-15 08:02:00,41.4,24.3,17.73,West,267,0.0,0.0,25,-99.99,,,-99.99,meteohub,2013-05-15 14:02:00,
2013-05-15 08:11:00,42.3,24.3,17.73,NW,308,0.0,0.0,25,-99.99,,,-99.99,meteohub,2013-05-15 14:11:00,
2013-05-15 08:17:00,43.7,24.4,17.73,NW,313,0.0,0.0,25,-99.99,,,-99.99,meteohub,2013-05-15 14:17:00,
2013-05-15 08:22:00,44.6,24.4,17.73,NW,317,0.0,0.0,25,-99.99,,,-99.99,meteohub,2013-05-15 14:22:00,
2013-05-15 08:27:00,45.1,24.4,17.73,NW,326,0.0,0.0,25,-99.99,,,-99.99,meteohub,2013-05-15 14:27:00,
2013-05-15 08:34:00,46.4,24.4,17.73,NNW,327,0.0,0.0,25,-99.99,,,-99.99,meteohub,2013-05-15 14:34:00,
2013-05-15 08:39:00,47.5,24.4,17.73,North,357,0.0,0.0,25,-99.99,,,-99.99,meteohub,2013-05-15 14:39:00,
2013-05-15 08:47:00,48.7,24.6,17.73,North,3,0.0,0.0,25,-99.99,,,-99.99,meteohub,2013-05-15 14:47:00,
2013-05-15 08:52:00,50.2,24.6,17.73,South,170,0.0,0.0,25,-99.99,,,-99.99,meteohub,2013-05-15 14:52:00,
2013-05-15 09:00:00,51.6,24.6,17.73,East,93,4.0,0.0,25,-99.99,,,-99.99,meteohub,2013-05-15 15:00:00,
2013-05-15 09:05:00,52.3,23.7,17.73,East,100,0.0,5.0,24,-99.99,,,-99.99,meteohub,2013-05-15 15:05:00,
2013-05-15 09:12:00,54.3,23.7,17.73,ENE,74,0.0,5.0,24,-99.99,,,-99.99,meteohub,2013-05-15 15:12:00,
2013-05-15 09:17:00,55.4,23.7,17.73,ENE,74,0.0,0.0,24,-99.99,,,-99.99,meteohub,2013-05-15 15:17:00,
2013-05-15 09:23:00,55.9,23.7,17.73,NNW,343,0.0,0.0,24,-99.99,,,-99.99,meteohub,2013-05-15 15:23:00,
2013-05-15 09:28:00,57.4,23.9,17.73,NNW,331,0.0,0.0,24,-99.99,,,-99.99,meteohub,2013-05-15 15:28:00,
2013-05-15 09:34:00,58.3,23.9,17.73,SE,132,0.0,0.0,24,-99.99,,,-99.99,meteohub,2013-05-15 15:34:00,
2013-05-15 09:40:00,58.5,23.9,17.73,ENE,73,0.0,4.0,24,-99.99,,,-99.99,meteohub,2013-05-15 15:40:00,
2013-05-15 09:47:00,58.8,23.9,17.73,SSW,208,4.0,5.0,24,-99.99,,,-99.99,meteohub,2013-05-15 15:47:00,
2013-05-15 09:52:00,59.0,23.9,17.73,SSE,160,0.0,5.0,24,-99.99,,,-99.99,meteohub,2013-05-15 15:52:00,
2013-05-15 09:57:00,59.7,23.9,17.73,ENE,78,2.0,5.0,24,-99.99,,,-99.99,meteohub,2013-05-15 15:57:00,
2013-05-15 10:02:00,60.4,23.9,17.73,SSE,150,3.0,5.0,24,-99.99,,,-99.99,meteohub,2013-05-15 16:02:00,
2013-05-15 10:07:00,61.0,23.9,17.73,SSE,154,0.0,5.0,24,-99.99,,,-99.99,meteohub,2013-05-15 16:07:00,
2013-05-15 10:12:00,62.6,23.9,17.73,ESE,122,2.0,5.0,24,-99.99,,,-99.99,meteohub,2013-05-15 16:12:00,
2013-05-15 10:18:00,62.8,23.9,17.73,ESE,112,3.0,5.0,24,-99.99,,,-99.99,meteohub,2013-05-15 16:18:00,
2013-05-15 10:23:00,62.2,23.9,17.73,East,91,2.0,6.0,24,-99.99,,,-99.99,meteohub,2013-05-15 16:23:00,
2013-05-15 10:28:00,62.6,23.9,17.73,SE,125,3.0,6.0,24,-99.99,,,-99.99,meteohub,2013-05-15 16:28:00,
2013-05-15 10:33:00,63.0,23.9,17.73,ESE,102,4.0,6.0,24,-99.99,,,-99.99,meteohub,2013-05-15 16:33:00,
2013-05-15 10:41:00,63.1,23.9,17.73,East,81,0.0,6.0,24,-99.99,,,-99.99,meteohub,2013-05-15 16:41:00,
2013-05-15 10:47:00,65.1,23.9,17.73,NE,51,4.0,5.0,24,-99.99,,,-99.99,meteohub,2013-05-15 16:47:00,
2013-05-15 10:52:00,66.0,23.9,17.73,East,95,3.0,5.0,24,-99.99,,,-99.99,meteohub,2013-05-15 16:52:00,
2013-05-15 11:02:00,66.2,23.9,17.73,SE,136,3.0,5.0,24,-99.99,,,-99.99,meteohub,2013-05-15 17:02:00,
2013-05-15 11:07:00,66.6,23.9,17.73,East,87,8.0,8.0,24,-99.99,,,-99.99,meteohub,2013-05-15 17:07:00,
2013-05-15 11:12:00,66.6,23.9,17.73,ESE,105,5.0,8.0,24,-99.99,,,-99.99,meteohub,2013-05-15 17:12:00,
2013-05-15 11:17:00,66.6,23.9,17.73,ENE,71,8.0,8.0,24,-99.99,,,-99.99,meteohub,2013-05-15 17:17:00,
2013-05-15 11:23:00,67.3,23.9,17.73,East,89,5.0,8.0,24,-99.99,,,-99.99,meteohub,2013-05-15 17:23:00,
2013-05-15 11:28:00,67.5,23.9,17.73,ESE,105,5.0,8.0,24,-99.99,,,-99.99,meteohub,2013-05-15 17:28:00,
2013-05-15 11:35:00,68.4,23.9,17.73,East,80,5.0,8.0,24,-99.99,,,-99.99,meteohub,2013-05-15 17:35:00,
2013-05-15 11:40:00,67.5,23.9,17.73,ESE,106,5.0,8.0,24,-99.99,,,-99.99,meteohub,2013-05-15 17:40:00,
2013-05-15 11:45:00,67.8,23.9,17.73,East,80,5.0,8.0,24,-99.99,,,-99.99,meteohub,2013-05-15 17:45:00,
2013-05-15 11:52:00,69.3,24.1,17.73,SE,142,3.0,7.0,24,-99.99,,,-99.99,meteohub,2013-05-15 17:52:00,
2013-05-15 11:57:00,69.3,24.1,17.73,ESE,106,5.0,7.0,24,-99.99,,,-99.99,meteohub,2013-05-15 17:57:00,
2013-05-15 12:02:00,69.4,24.1,17.73,ESE,115,4.0,6.0,24,-99.99,,,-99.99,meteohub,2013-05-15 18:02:00,
2013-05-15 12:07:00,69.8,24.1,17.73,SSE,167,3.0,6.0,24,-99.99,,,-99.99,meteohub,2013-05-15 18:07:00,
2013-05-15 12:12:00,70.5,24.1,17.73,East,91,6.0,6.0,24,-99.99,,,-99.99,meteohub,2013-05-15 18:12:00,
2013-05-15 12:18:00,70.9,24.1,17.73,SW,232,0.0,9.0,24,-99.99,,,-99.99,meteohub,2013-05-15 18:18:00,
2013-05-15 12:23:00,71.4,24.1,17.73,WSW,244,0.0,9.0,24,-99.99,,,-99.99,meteohub,2013-05-15 18:23:00,
2013-05-15 12:29:00,72.0,24.1,17.73,SSW,193,4.0,9.0,24,-99.99,,,-99.99,meteohub,2013-05-15 18:29:00,
2013-05-15 12:35:00,71.1,24.3,17.73,SSE,155,3.0,9.0,24,-99.99,,,-99.99,meteohub,2013-05-15 18:35:00,
2013-05-15 12:40:00,70.9,24.3,17.73,SW,232,4.0,9.0,24,-99.99,,,-99.99,meteohub,2013-05-15 18:40:00,
2013-05-15 12:45:00,70.9,24.3,17.73,WSW,241,5.0,9.0,24,-99.99,,,-99.99,meteohub,2013-05-15 18:45:00,
2013-05-15 12:51:00,69.3,24.4,17.73,West,266,8.0,10.0,24,-99.99,,,-99.99,meteohub,2013-05-15 18:51:00,
2013-05-15 12:56:00,68.5,24.4,17.73,SW,231,7.0,11.0,24,-99.99,,,-99.99,meteohub,2013-05-15 18:56:00,
2013-05-15 13:03:00,68.9,24.4,17.73,SSW,203,5.0,11.0,24,-99.99,,,-99.99,meteohub,2013-05-15 19:03:00,
2013-05-15 13:12:00,73.2,24.4,17.73,WSW,243,8.0,11.0,24,-99.99,,,-99.99,meteohub,2013-05-15 19:12:00,
2013-05-15 13:17:00,73.2,24.6,17.73,WSW,250,5.0,11.0,24,-99.99,,,-99.99,meteohub,2013-05-15 19:17:00,
2013-05-15 13:22:00,72.1,24.6,17.73,WSW,251,9.0,11.0,24,-99.99,,,-99.99,meteohub,2013-05-15 19:22:00,
2013-05-15 13:29:00,72.9,24.6,17.73,WSW,253,5.0,11.0,24,-99.99,,,-99.99,meteohub,2013-05-15 19:29:00,
2013-05-15 13:36:00,68.9,24.6,17.73,SW,236,8.0,11.0,24,-99.99,,,-99.99,meteohub,2013-05-15 19:36:00,
2013-05-15 13:41:00,68.9,24.6,17.73,SW,219,8.0,13.0,24,-99.99,,,-99.99,meteohub,2013-05-15 19:41:00,
2013-05-15 13:46:00,69.8,24.6,17.73,WSW,237,11.0,13.0,24,-99.99,,,-99.99,meteohub,2013-05-15 19:46:00,
2013-05-15 13:54:00,67.6,25.7,17.73,WSW,239,10.0,13.0,25,-99.99,,,-99.99,meteohub,2013-05-15 19:54:00,
2013-05-15 14:02:00,69.1,25.9,17.73,South,185,4.0,12.0,25,-99.99,,,-99.99,meteohub,2013-05-15 20:02:00,
2013-05-15 14:08:00,68.0,25.9,17.73,South,187,6.0,12.0,25,-99.99,,,-99.99,meteohub,2013-05-15 20:08:00,
2013-05-15 14:17:00,68.5,26.1,17.73,WSW,246,11.0,11.0,25,-99.99,,,-99.99,meteohub,2013-05-15 20:17:00,
2013-05-15 14:22:00,68.7,26.1,17.73,WSW,237,9.0,13.0,25,-99.99,,,-99.99,meteohub,2013-05-15 20:22:00,
2013-05-15 14:27:00,69.3,26.1,17.73,SW,221,6.0,13.0,25,-99.99,,,-99.99,meteohub,2013-05-15 20:27:00,
2013-05-15 14:32:00,69.4,26.1,17.73,SSW,209,6.0,13.0,25,-99.99,,,-99.99,meteohub,2013-05-15 20:32:00,
2013-05-15 14:37:00,69.6,26.1,17.73,WSW,246,7.0,13.0,25,-99.99,,,-99.99,meteohub,2013-05-15 20:37:00,
2013-05-15 14:42:00,70.5,26.1,17.73,SSW,203,6.0,13.0,25,-99.99,,,-99.99,meteohub,2013-05-15 20:42:00,
2013-05-15 14:47:00,70.5,26.1,17.73,WSW,239,9.0,13.0,25,-99.99,,,-99.99,meteohub,2013-05-15 20:47:00,
2013-05-15 14:52:00,70.0,25.3,17.73,SW,217,8.0,14.0,24,-99.99,,,-99.99,meteohub,2013-05-15 20:52:00,
2013-05-15 14:57:00,69.8,25.3,17.73,SW,234,10.0,14.0,24,-99.99,,,-99.99,meteohub,2013-05-15 20:57:00,
2013-05-15 15:02:00,70.0,25.3,17.73,SSW,210,10.0,15.0,24,-99.99,,,-99.99,meteohub,2013-05-15 21:02:00,
2013-05-15 15:07:00,68.7,25.3,17.73,SW,226,9.0,15.0,24,-99.99,,,-99.99,meteohub,2013-05-15 21:07:00,
2013-05-15 15:12:00,67.8,25.3,17.73,WSW,241,11.0,15.0,24,-99.99,,,-99.99,meteohub,2013-05-15 21:12:00,
2013-05-15 15:20:00,67.6,25.3,17.73,WSW,238,8.0,15.0,24,-99.99,,,-99.99,meteohub,2013-05-15 21:20:00,
2013-05-15 15:25:00,66.7,25.5,17.73,SW,222,11.0,13.0,24,-99.99,,,-99.99,meteohub,2013-05-15 21:25:00,
2013-05-15 15:31:00,66.6,25.5,17.73,SW,234,9.0,14.0,24,-99.99,,,-99.99,meteohub,2013-05-15 21:31:00,
2013-05-15 15:37:00,67.6,25.5,17.73,SW,232,13.0,15.0,24,-99.99,,,-99.99,meteohub,2013-05-15 21:37:00,
2013-05-15 15:45:00,68.0,25.5,17.73,WSW,240,11.0,15.0,24,-99.99,,,-99.99,meteohub,2013-05-15 21:45:00,
2013-05-15 15:50:00,67.3,25.5,17.73,SW,223,9.0,15.0,24,-99.99,,,-99.99,meteohub,2013-05-15 21:50:00,
2013-05-15 15:56:00,68.2,25.5,17.73,SSW,203,6.0,13.0,24,-99.99,,,-99.99,meteohub,2013-05-15 21:56:00,
2013-05-15 16:01:00,68.2,25.5,17.73,SW,231,8.0,17.0,24,-99.99,,,-99.99,meteohub,2013-05-15 22:01:00,
2013-05-15 16:06:00,67.1,25.5,17.73,SW,236,12.0,17.0,24,-99.99,,,-99.99,meteohub,2013-05-15 22:06:00,
2013-05-15 16:12:00,68.5,25.5,17.73,WSW,258,8.0,17.0,24,-99.99,,,-99.99,meteohub,2013-05-15 22:12:00,
2013-05-15 16:17:00,69.1,25.5,17.73,SW,234,10.0,13.0,24,-99.99,,,-99.99,meteohub,2013-05-15 22:17:00,
2013-05-15 16:22:00,68.0,25.5,17.73,WSW,237,8.0,13.0,24,-99.99,,,-99.99,meteohub,2013-05-15 22:22:00,
2013-05-15 16:27:00,69.1,25.7,17.73,SW,220,12.0,13.0,24,-99.99,,,-99.99,meteohub,2013-05-15 22:27:00,
2013-05-15 16:32:00,69.6,25.7,17.73,SW,229,5.0,13.0,24,-99.99,,,-99.99,meteohub,2013-05-15 22:32:00,
2013-05-15 16:38:00,69.6,25.7,17.73,SW,215,8.0,13.0,24,-99.99,,,-99.99,meteohub,2013-05-15 22:38:00,
2013-05-15 16:47:00,67.1,25.7,17.73,WSW,253,8.0,13.0,24,-99.99,,,-99.99,meteohub,2013-05-15 22:47:00,
2013-05-15 16:52:00,68.2,25.7,17.73,WSW,244,8.0,13.0,24,-99.99,,,-99.99,meteohub,2013-05-15 22:52:00,
2013-05-15 16:57:00,68.0,25.7,17.73,WSW,246,11.0,13.0,24,-99.99,,,-99.99,meteohub,2013-05-15 22:57:00,
2013-05-15 17:02:00,67.6,25.7,17.73,SW,235,8.0,14.0,24,-99.99,,,-99.99,meteohub,2013-05-15 23:02:00,
2013-05-15 17:07:00,67.8,25.9,17.73,West,261,10.0,14.0,24,-99.99,,,-99.99,meteohub,2013-05-15 23:07:00,
2013-05-15 17:12:00,67.6,25.9,17.73,West,274,10.0,14.0,24,-99.99,,,-99.99,meteohub,2013-05-15 23:12:00,
2013-05-15 17:18:00,68.0,25.9,17.73,NNW,345,8.0,13.0,24,-99.99,,,-99.99,meteohub,2013-05-15 23:18:00,
2013-05-15 17:26:00,65.8,25.9,17.73,West,262,8.0,28.0,24,-99.99,,,-99.99,meteohub,2013-05-15 23:26:00,
2013-05-15 17:32:00,63.5,25.9,17.73,South,173,5.0,28.0,24,-99.99,,,-99.99,meteohub,2013-05-15 23:32:00,
2013-05-15 17:37:00,63.5,25.9,17.73,SW,226,8.0,19.0,24,-99.99,,,-99.99,meteohub,2013-05-15 23:37:00,
2013-05-15 17:42:00,64.8,25.9,17.73,South,169,8.0,16.0,24,-99.99,,,-99.99,meteohub,2013-05-15 23:42:00,
2013-05-15 17:47:00,64.8,25.9,17.73,South,189,6.0,13.0,24,-99.99,,,-99.99,meteohub,2013-05-15 23:47:00,
2013-05-15 17:52:00,65.7,26.1,17.73,SSW,213,4.0,13.0,24,-99.99,,,-99.99,meteohub,2013-05-15 23:52:00,
2013-05-15 17:57:00,66.2,26.1,17.73,SSW,210,5.0,13.0,24,-99.99,,,-99.99,meteohub,2013-05-15 23:57:00,
2013-05-15 18:02:00,65.7,26.1,17.73,SSW,196,3.0,6.0,24,-99.99,,,-99.99,meteohub,2013-05-16 00:02:00,
2013-05-15 18:07:00,64.8,26.1,17.73,South,187,3.0,10.0,24,-99.99,,,-99.99,meteohub,2013-05-16 00:07:00,
2013-05-15 18:14:00,64.6,26.1,17.73,South,187,4.0,10.0,24,-99.99,,,-99.99,meteohub,2013-05-16 00:14:00,
2013-05-15 18:22:00,66.4,26.1,17.73,South,186,7.0,10.0,24,-99.99,,,-99.99,meteohub,2013-05-16 00:22:00,
2013-05-15 18:27:00,65.1,26.1,17.73,SSW,211,3.0,8.0,24,-99.99,,,-99.99,meteohub,2013-05-16 00:27:00,
2013-05-15 18:32:00,64.6,26.1,17.73,SW,219,4.0,8.0,24,-99.99,,,-99.99,meteohub,2013-05-16 00:32:00,
2013-05-15 18:37:00,63.9,26.1,17.73,SW,233,4.0,7.0,24,-99.99,,,-99.99,meteohub,2013-05-16 00:37:00,
2013-05-15 18:42:00,63.7,26.1,17.73,SW,233,3.0,4.0,24,-99.99,,,-99.99,meteohub,2013-05-16 00:42:00,
2013-05-15 18:47:00,64.2,26.1,17.73,SW,233,3.0,4.0,24,-99.99,,,-99.99,meteohub,2013-05-16 00:47:00,
2013-05-15 18:52:00,64.6,26.1,17.73,SW,233,0.0,4.0,24,-99.99,,,-99.99,meteohub,2013-05-16 00:52:00,
2013-05-15 18:57:00,64.9,26.1,17.73,SW,233,0.0,4.0,24,-99.99,,,-99.99,meteohub,2013-05-16 00:57:00,
2013-05-15 19:02:00,64.9,26.1,17.73,East,89,4.0,4.0,24,-99.99,,,-99.99,meteohub,2013-05-16 01:02:00,
2013-05-15 19:07:00,64.2,26.1,17.73,East,83,5.0,6.0,24,-99.99,,,-99.99,meteohub,2013-05-16 01:07:00,
2013-05-15 19:12:00,62.8,26.1,17.73,East,101,6.0,8.0,24,-99.99,,,-99.99,meteohub,2013-05-16 01:12:00,
2013-05-15 19:17:00,62.1,26.1,17.73,East,83,8.0,8.0,24,-99.99,,,-99.99,meteohub,2013-05-16 01:17:00,
2013-05-15 19:22:00,62.1,26.1,17.73,East,87,6.0,8.0,24,-99.99,,,-99.99,meteohub,2013-05-16 01:22:00,
2013-05-15 19:27:00,61.9,26.2,17.73,East,89,4.0,8.0,24,-99.99,,,-99.99,meteohub,2013-05-16 01:27:00,
2013-05-15 19:32:00,61.9,26.2,17.73,ENE,70,0.0,9.0,24,-99.99,,,-99.99,meteohub,2013-05-16 01:32:00,
2013-05-15 19:37:00,62.4,26.1,17.73,WNW,296,0.0,8.0,24,-99.99,,,-99.99,meteohub,2013-05-16 01:37:00,
2013-05-15 19:46:00,63.1,26.1,17.73,North,357,8.0,8.0,24,-99.99,,,-99.99,meteohub,2013-05-16 01:46:00,
2013-05-15 19:55:00,62.6,26.1,17.73,NNW,341,4.0,11.0,24,-99.99,,,-99.99,meteohub,2013-05-16 01:55:00,
2013-05-15 20:00:00,61.3,26.1,17.73,North,353,11.0,11.0,24,-99.99,,,-99.99,meteohub,2013-05-16 02:00:00,
2013-05-15 20:05:00,60.6,26.1,17.73,NNW,331,8.0,11.0,24,-99.99,,,-99.99,meteohub,2013-05-16 02:05:00,
2013-05-15 20:12:00,60.3,26.1,17.73,NW,325,8.0,13.0,24,-99.99,,,-99.99,meteohub,2013-05-16 02:12:00,
2013-05-15 20:17:00,60.1,26.1,17.73,NNW,332,6.0,13.0,24,-99.99,,,-99.99,meteohub,2013-05-16 02:17:00,
2013-05-15 20:22:00,59.4,26.1,17.73,NNW,337,6.0,10.0,24,-99.99,,,-99.99,meteohub,2013-05-16 02:22:00,
2013-05-15 20:27:00,59.0,26.1,17.73,NNW,338,8.0,10.0,24,-99.99,,,-99.99,meteohub,2013-05-16 02:27:00,
2013-05-15 20:32:00,58.8,26.1,17.73,NNW,329,4.0,8.0,24,-99.99,,,-99.99,meteohub,2013-05-16 02:32:00,
2013-05-15 20:38:00,58.3,26.1,17.73,East,95,6.0,8.0,24,-99.99,,,-99.99,meteohub,2013-05-16 02:38:00,
2013-05-15 20:43:00,57.7,26.1,17.73,East,92,5.0,8.0,24,-99.99,,,-99.99,meteohub,2013-05-16 02:43:00,
2013-05-15 20:48:00,57.2,26.1,17.73,SE,133,4.0,6.0,24,-99.99,,,-99.99,meteohub,2013-05-16 02:48:00,
2013-05-15 20:53:00,56.7,26.1,17.73,East,83,5.0,8.0,24,-99.99,,,-99.99,meteohub,2013-05-16 02:53:00,
2013-05-15 20:58:00,55.9,25.9,17.73,East,88,4.0,8.0,24,-99.99,,,-99.99,meteohub,2013-05-16 02:58:00,
2013-05-15 21:07:00,54.7,25.9,17.73,East,97,6.0,8.0,24,-99.99,,,-99.99,meteohub,2013-05-16 03:07:00,
2013-05-15 21:12:00,54.5,25.9,17.73,East,87,6.0,8.0,24,-99.99,,,-99.99,meteohub,2013-05-16 03:12:00,
2013-05-15 21:17:00,54.7,25.9,17.73,East,86,8.0,8.0,24,-99.99,,,-99.99,meteohub,2013-05-16 03:17:00,
2013-05-15 21:22:00,54.5,25.9,17.73,East,83,8.0,8.0,24,-99.99,,,-99.99,meteohub,2013-05-16 03:22:00,
2013-05-15 21:32:00,54.7,25.7,17.73,East,82,8.0,10.0,24,-99.99,,,-99.99,meteohub,2013-05-16 03:32:00,
2013-05-15 21:37:00,54.5,25.7,17.73,ENE,75,8.0,10.0,24,-99.99,,,-99.99,meteohub,2013-05-16 03:37:00,
2013-05-15 21:42:00,54.1,25.7,17.73,North,2,5.0,10.0,24,-99.99,,,-99.99,meteohub,2013-05-16 03:42:00,
2013-05-15 21:47:00,54.1,25.7,17.73,SSW,205,3.0,10.0,24,-99.99,,,-99.99,meteohub,2013-05-16 03:47:00,
2013-05-15 21:55:00,54.3,25.7,17.73,ENE,76,8.0,10.0,24,-99.99,,,-99.99,meteohub,2013-05-16 03:55:00,
2013-05-15 22:01:00,54.1,25.5,17.73,East,97,4.0,10.0,24,-99.99,,,-99.99,meteohub,2013-05-16 04:01:00,
2013-05-15 22:02:00,54.1,25.5,17.73,East,83,5.0,10.0,24,-99.99,,,-99.99,meteohub,2013-05-16 04:02:00,
2013-05-15 22:05:00,54.0,25.5,17.73,ENE,65,6.0,10.0,24,-99.99,,,-99.99,meteohub,2013-05-16 04:05:00,
2013-05-15 22:10:00,54.0,25.5,17.73,NE,39,4.0,10.0,24,-99.99,,,-99.99,meteohub,2013-05-16 04:10:00,
2013-05-15 22:15:00,53.8,25.5,17.73,SE,130,4.0,10.0,24,-99.99,,,-99.99,meteohub,2013-05-16 04:15:00,
2013-05-15 22:20:00,53.6,25.5,17.73,East,80,4.0,10.0,24,-99.99,,,-99.99,meteohub,2013-05-16 04:20:00,
2013-05-15 22:26:00,53.6,25.5,17.73,East,97,5.0,9.0,24,-99.99,,,-99.99,meteohub,2013-05-16 04:26:00,
2013-05-15 22:31:00,53.2,25.5,17.73,East,88,3.0,9.0,24,-99.99,,,-99.99,meteohub,2013-05-16 04:31:00,
2013-05-15 22:36:00,52.9,25.5,17.73,NE,36,5.0,8.0,24,-99.99,,,-99.99,meteohub,2013-05-16 04:36:00,
2013-05-15 22:41:00,52.5,25.5,17.73,SSE,148,4.0,8.0,24,-99.99,,,-99.99,meteohub,2013-05-16 04:41:00,
2013-05-15 22:46:00,52.3,25.5,17.73,ESE,104,4.0,8.0,24,-99.99,,,-99.99,meteohub,2013-05-16 04:46:00,
2013-05-15 22:51:00,52.2,25.3,17.73,East,90,2.0,7.0,24,-99.99,,,-99.99,meteohub,2013-05-16 04:51:00,
2013-05-15 22:57:00,52.2,25.3,17.73,East,80,4.0,7.0,24,-99.99,,,-99.99,meteohub,2013-05-16 04:57:00,
2013-05-15 23:02:00,52.2,25.3,17.73,East,92,6.0,8.0,24,-99.99,,,-99.99,meteohub,2013-05-16 05:02:00,
2013-05-15 23:07:00,52.0,25.3,17.73,East,96,6.0,8.0,24,-99.99,,,-99.99,meteohub,2013-05-16 05:07:00,
2013-05-15 23:12:00,51.8,25.3,17.73,East,85,4.0,8.0,24,-99.99,,,-99.99,meteohub,2013-05-16 05:12:00,
2013-05-15 23:17:00,52.0,25.3,17.73,East,97,3.0,8.0,24,-99.99,,,-99.99,meteohub,2013-05-16 05:17:00,
2013-05-15 23:22:00,52.2,25.3,17.73,East,85,6.0,7.0,24,-99.99,,,-99.99,meteohub,2013-05-16 05:22:00,
2013-05-15 23:27:00,52.2,25.3,17.73,ESE,102,8.0,8.0,24,-99.99,,,-99.99,meteohub,2013-05-16 05:27:00,
2013-05-15 23:32:00,52.2,26.1,17.73,East,94,6.0,9.0,25,-99.99,,,-99.99,meteohub,2013-05-16 05:32:00,
2013-05-15 23:37:00,52.0,26.1,17.73,ENE,77,0.0,9.0,25,-99.99,,,-99.99,meteohub,2013-05-16 05:37:00,
2013-05-15 23:42:00,52.2,26.1,17.73,East,98,5.0,9.0,25,-99.99,,,-99.99,meteohub,2013-05-16 05:42:00,
2013-05-15 23:47:00,52.0,26.1,17.73,East,98,3.0,6.0,25,-99.99,,,-99.99,meteohub,2013-05-16 05:47:00,
2013-05-15 23:52:00,52.0,26.1,17.73,NNW,328,5.0,5.0,25,-99.99,,,-99.99,meteohub,2013-05-16 05:52:00,
2013-05-15 23:58:00,52.2,26.1,17.73,North,350,6.0,6.0,25,-99.99,,,-99.99,meteohub,2013-05-16 05:58:00,